Fort Myers, FL

4:21 AM EST on December 11, 2016 (GMT -0500)
Page

Weather History for KFMY - December, 2011

Change the Weather History Date:

Thursday, December 22, 2011

  Actual Average Record
Temperature  
Mean Temperature 73 °F 66 °F  
Max Temperature 85 °F 76 °F 86 °F (1956)
Min Temperature 61 °F 55 °F 35 °F (1960)
Degree Days  
Heating Degree Days 0 3  
Month to date heating degree days 10 44  
Since 1 July heating degree days 14 62  
Cooling Degree Days 8 3  
Month to date cooling degree days 132 94  
Year to date cooling degree days 4226 3957  
Growing Degree Days 22 (Base 50)    
Moisture  
Dew Point 63 °F    
Average Humidity 76    
Maximum Humidity 97    
Minimum Humidity 48    
Precipitation  
Precipitation 0.00 in 0.06 in 2.04 in (1925)
Month to date precipitation 0.26 1.15  
Year to date precipitation 65.67 55.37  
Sea Level Pressure  
Sea Level Pressure 30.10 in    
Wind  
Wind Speed 5 mph (SE)    
Max Wind Speed 15 mph    
Max Gust Speed 21 mph    
Visibility 10 miles    
Events      
T = Trace of Precipitation, MM = Missing Value Source: NWS Daily Summary

Daily Weather History Graph

Daily Weather History Graph

Search for Another Location

Airport or City:

Trip Planner

Search our weather history database for the weather conditions in past years. The results will help you decide how hot, cold, wet, or windy it might be!

Date:

Astronomy

Dec. 22, 2011 Rise Set
Actual Time 7:11 AM EST 5:40 PM EST
Civil Twilight 6:46 AM EST 6:05 PM EST
Nautical Twilight 6:17 AM EST 6:34 PM EST
Astronomical Twilight 5:49 AM EST 7:02 PM EST
Moon 4:55 AM EST (12/22) 3:48 PM EST (12/22)
Length of Visible Light 11h 19m
Length of Day
10h 28m
Waning Crescent, 6% of the Moon is Illuminated
Dec 22
Waning Crescent
Dec 24
New
Jan 1
First Quarter
Jan 9
Full
Jan 16
Last Quarter

Hourly Weather History & Observations

Time (EST) Temp. Heat Index Dew Point Humidity Pressure Visibility Wind Dir Wind Speed Gust Speed Precip Events Conditions
12:53 AM 64.9 °F - 61.0 °F 87% 30.10 in 10.0 mi Calm Calm - N/A   Clear
1:53 AM 63.0 °F - 60.1 °F 90% 30.09 in 10.0 mi ESE 4.6 mph - N/A   Clear
2:53 AM 64.0 °F - 61.0 °F 90% 30.09 in 10.0 mi Calm Calm - N/A   Clear
3:53 AM 62.1 °F - 60.1 °F 93% 30.09 in 10.0 mi Calm Calm - N/A   Clear
4:53 AM 62.1 °F - 60.1 °F 93% 30.09 in 10.0 mi NE 3.5 mph - N/A   Clear
5:53 AM 62.1 °F - 60.1 °F 93% 30.10 in 10.0 mi East 3.5 mph - N/A   Clear
6:53 AM 61.0 °F - 59.0 °F 93% 30.12 in 10.0 mi Calm Calm - N/A   Clear
7:53 AM 63.0 °F - 61.0 °F 93% 30.14 in 10.0 mi East 3.5 mph - N/A   Clear
9:53 AM 75.0 °F - 66.0 °F 73% 30.15 in 10.0 mi SE 11.5 mph 16.1 mph N/A   Clear
10:53 AM 78.1 °F - 64.9 °F 64% 30.14 in 10.0 mi SE 13.8 mph 19.6 mph N/A   Clear
11:53 AM 80.1 °F 81.7 °F 64.0 °F 58% 30.12 in 10.0 mi SSE 10.4 mph - N/A   Mostly Cloudy
12:53 PM 82.9 °F 84.4 °F 64.0 °F 53% 30.10 in 10.0 mi SSE 5.8 mph - N/A   Mostly Cloudy
1:53 PM 84.9 °F 85.4 °F 62.1 °F 46% 30.07 in 10.0 mi Variable 6.9 mph - N/A   Mostly Cloudy
2:53 PM 84.9 °F 85.9 °F 63.0 °F 48% 30.06 in 10.0 mi Variable 5.8 mph - N/A   Mostly Cloudy
3:53 PM 82.0 °F 83.8 °F 64.9 °F 56% 30.06 in 10.0 mi South 9.2 mph - N/A   Clear
4:53 PM 78.1 °F - 66.9 °F 68% 30.07 in 10.0 mi SSW 8.1 mph - N/A   Mostly Cloudy
5:53 PM 75.9 °F - 66.0 °F 71% 30.07 in 10.0 mi South 6.9 mph - N/A   Scattered Clouds
6:53 PM 75.0 °F - 66.0 °F 73% 30.09 in 10.0 mi South 3.5 mph - N/A   Overcast
7:53 PM 73.9 °F - 66.0 °F 76% 30.11 in 10.0 mi Calm Calm - N/A   Overcast
8:53 PM 73.0 °F - 64.9 °F 76% 30.12 in 10.0 mi SSE 3.5 mph - N/A   Clear
10:53 PM 69.1 °F - 64.0 °F 84% 30.13 in 10.0 mi Calm Calm - N/A   Clear
11:53 PM 68.0 °F - 63.0 °F 84% 30.13 in 10.0 mi Calm Calm - N/A   Clear